Regional & State Weather Roundups


815 
ASUS45 KTFX 191110
RWRMT 
MONTANA REGIONAL WEATHER ROUNDUP
NATIONAL WEATHER SERVICE GREAT FALLS MT
400 AM MST MON FEB 19 2018
NOTE: "FAIR" INDICATES FEW OR NO CLOUDS BELOW 12000 FEET WITH NO
SIGNIFICANT WEATHER AND/OR OBSTRUCTIONS TO VISIBILITY.
MTZ001>007-043-191200-
WEST OF THE DIVIDE
  
CITY           SKY/WX    TMP DP  RH WIND       PRES   REMARKS
KALISPELL      CLOUDY     5  -7  57 NE8       29.98S WCI  -8          
MISSOULA       CLOUDY     5  -7  57 SE18      29.93R WCI -15          
BUTTE          FAIR     -15 -20  78 CALM      29.73R                  
MULLAN PASS    CLOUDY    -5  -8  87 VRB5      29.59S                  
ANACONDA         N/A     -9 -17  70 E3        29.81R                  
DEER LODGE       N/A     -6 -15  65 N9        29.85R WCI -22          
HAMILTON         N/A      3  -6  66 MISG      29.85S                  
PLAINS           N/A      8  -5  55 CALM      29.99R                  
RONAN            N/A     -9 -13  84 SE8       29.96R WCI -26          
$$
MTZ008-052>055-191200-
SOUTHWEST MONTANA
  
CITY           SKY/WX    TMP DP  RH WIND       PRES   REMARKS
BOZEMAN        LGT SNOW   0  -5  79 NW12      29.83R WCI -17          
DILLON         FAIR     -10 -11  95 NE15      29.71R WCI -32          
ENNIS          LGT SNOW  -4  -9  77 N12       29.74F WCI -22          
W YELLOWSTONE  FLURRIES   0  -4  85 CALM      29.49F                  
THREE FORKS      N/A      2  -5  72 N3        29.86R                  
TWIN BRIDGES     N/A     -2 -13  59 N12       29.76R WCI -19          
$$
MTZ009-010-012-014-046-048-049-054-191200-
EAST SLOPES AND CENTRAL MONTANA
  
CITY           SKY/WX    TMP DP  RH WIND       PRES   REMARKS
CUT BANK       CLOUDY    -7 -11  83 NW3       30.00S FOG              
GREAT FALLS    LGT SNOW  -4  -8  83 N3        30.00F FOG              
MALMSTROM AFB  LGT SNOW  -3  -6  87 N5        30.03F                  
HELENA         CLOUDY    -2  -8  76 W9        29.95S HAZE    WCI -18  
AUGUSTA        LGT SNOW  -7 -11  83 N10       29.93S WCI -25          
BOWMANS CRNR   LGT SNOW  -7 -10  83 N8        29.92S WCI -22          
CONRAD           N/A     -4 -10  75 W5        30.04                   
FAIRFIELD      LGT SNOW  -6 -11  77 N5        29.99S                  
POWER          FLURRIES  -6 -10  81 N7        29.99S WCI -20          
RAYNESFORD     LGT SNOW  -4  -8  82 NW3       29.96F                  
ULM            LGT SNOW  -4  -8  84 W3        30.01F                  
WHITE SULPHUR    N/A     -4  -9  77 CALM      29.79R HAZE             
$$
MTZ011-013-016-021-045-047-050-051-191200-
NORTH CENTRAL MONTANA
  
CITY           SKY/WX    TMP DP  RH WIND       PRES   REMARKS
HAVRE          LGT SNOW  -9 -13  83 W3        30.14S FOG              
LEWISTOWN      LGT SNOW  -6  -9  86 CALM      29.94S FOG              
N BAR RANCH    CLOUDY    -6 -13  71 CALM      29.93R                  
CHINOOK          N/A     -9 -15  77 CALM      30.17S                  
GEYSER         FLURRIES  -5  -9  82 CALM      29.96S                  
STANFORD       LGT SNOW  -6 -10  85 CALM      29.92S                  
WINIFRED       LGT SNOW  -4  -8  84 W3        29.99F                  
$$
MTZ017>020-022>027-061-062-191200-
NORTHEAST MONTANA
  
CITY           SKY/WX    TMP DP  RH WIND       PRES   REMARKS
GLASGOW        CLOUDY    -4 -10  75 N8        30.12S WCI -19          
GLENDIVE       CLOUDY    -4  -9  79 N5        30.11F                  
JORDAN           N/A     -1  -7  75 CALM      30.08F                  
MALTA          CLOUDY   -17 -22  76 CALM      30.15F HAZE             
SIDNEY         FAIR     -13 -18  78 CALM      30.17R                  
WOLF POINT     MOCLDY   -18 -26  67 CALM      30.17R                  
PLENTYWOOD       N/A     -6 -11  77 CALM      30.13R                  
POPLAR           N/A    -13 -18  77 CALM      30.18R                  
SCOBEY           N/A    -17 -27  60 CALM      30.09R                  
$$
MTZ028>42-056>058-191200-
SOUTHCENTRAL AND SOUTHEAST MONTANA
  
CITY           SKY/WX    TMP DP  RH WIND       PRES   REMARKS
BAKER          CLOUDY     1  -3  83 E6        30.02F WCI -10          
BILLINGS       LGT SNOW  -1  -5  82 NE12      29.96F FOG     WCI -18  
LIVINGSTON     LGT SNOW  -2  -7  79 E20G25    29.82R WCI -24          
MILES CITY     CLOUDY    -1  -4  87 N6        30.07F WCI -13          
BIG TIMBER     MOCLDY    -4  -8  84 NE8       29.91F WCI -19          
EKALAKA          N/A     -1  -9  69 NE3       29.92S                  
FORSYTH          N/A      1  -2  85 CALM      30.07R                  
HARLOWTON      LGT SNOW  -4  -8  81 NE9       29.90S WCI -20          
LAUREL           N/A      0  -6  78 NE10      29.99S HAZE    WCI -17  
$$
REGIONAL REPORTS...DAKOTAS
  
CITY           SKY/WX    TMP DP  RH WIND       PRES   REMARKS
WILLISTON      FAIR     -12 -19  71 CALM      30.18R                  
MINOT          FAIR      -8 -14  74 SW5       30.19R                  
DICKINSON      FAIR       0  -7  72 N6        30.06S WCI -12          
BEACH          CLOUDY    -6  -9  84 N3        30.08F                  
CROSBY         FAIR     -17 -20  83 SW5       30.16S                  
TIOGA          FAIR     -15 -17  91 SW6       30.15R WCI -29          
BISMARCK       FAIR       3  -7  63 N10       30.17R WCI -12          
GRAND FORKS    FAIR       2  -5  72 N15       30.20R WCI -17          
FARGO          CLOUDY     7   0  73 N22       30.14R WCI -14          
BUFFALO SD       N/A      1  -4  79 NE10      29.91F WCI -15          
RAPID CITY     LGT SNOW   2  -2  83 N16       29.99R FOG     WCI -18  
$$
REGIONAL REPORTS...WYOMING/IDAHO/WASHINGTON
  
CITY           SKY/WX    TMP DP  RH WIND       PRES   REMARKS
GILLETTE       MOCLDY    -1  -5  82 N14       29.83F WCI -20          
SHERIDAN       CLOUDY     0  -3  87 NE3       29.89F                  
BUFFALO WY     CLOUDY     0  -4  83 N5        29.80F                  
CODY           CLOUDY    -2  -9  72 NE6       29.78R WCI -14          
YELLOWSTONE LA   N/A      2  -1  88 CALM      29.43S                  
IDAHO FALLS    CLOUDY    16   8  71 N10       29.54R WCI   4          
SALMON         CLOUDY    12   1  61 N15       29.70R WCI  -4          
BOISE          FAIR      21  16  81 CALM      29.66S                  
SPOKANE        FAIR      10  -1  61 N10       29.88R WCI  -4          
$$
REGIONAL REPORTS...ALBERTA
  
CITY           SKY/WX    TMP DP  RH WIND       PRES   REMARKS
CALGARY        CLOUDY    -2  -8  78 SW5       30.00F                  
CARDSTON         N/A    -11 -15  84 SE2         N/A                   
EDMONTON       CLOUDY     3  -8  60 W9        30.04F WCI -11          
FORT MCMURRAY  MOCLDY     0  -4  85 SW8       29.93F WCI -15          
LETHBRIDGE     CLOUDY   -13 -18  77 SW9       30.09S WCI -31          
LLOYDMINSTER   CLOUDY    -9 -15  77 W12       30.04S WCI -29          
MEDICINE HAT   MOCLDY   -11 -17  77 SW8       30.15S WCI -28          
MILK RIVER       N/A    -13 -18  77 NW10        N/A  WCI -32          
ONEFOUR          N/A     -9 -13  84 NW5         N/A                   
PEACE RIVER    CLOUDY     7  -4  61 W16       29.99F WCI -11          
PINCHER CREEK  LGT SNOW  -8 -13  77 NW7       30.00S WCI -22          
WATERTON GATE    N/A     -9 -15  77 CALM        N/A                   
$$
REGIONAL REPORTS...SASKATCHEWAN
  
CITY           SKY/WX    TMP DP  RH WIND       PRES   REMARKS
CORONACH         N/A    -18 -24  76 W7          N/A  WCI -35          
CYPRESS HILLS    N/A    -11 -17  77 W1          N/A                   
ESTEVAN        CLOUDY   -17 -20  83 W7        30.15S WCI -33          
MOOSE JAW        N/A    -15 -18  84 SW5         N/A                   
PRINCE ALBERT  MOCLDY   -31 -38  68 CALM      30.15S                  
REGINA         PTCLDY   -18 -24  76 S7        30.14F WCI -35          
ROCKGLEN         N/A     -8 -11  84 NW7         N/A  WCI -22          
SASKATOON      CLEAR    -20 -26  76 S7        30.15F WCI -37          
SWIFT CURRENT  FLURRIES -13 -20  70 SW9       30.07  WCI -31          
VAL MARIE        N/A    -26 -33  68 NW1         N/A                   
$$